Wenatchee, WA

6:52 PM PDT on March 26, 2017 (GMT -0700)
Pangborn Memorial

Weather History for KEAT - April, 2013

Change the Weather History Date:

Monday, April 29, 2013

  Actual Average Record
Temperature  
Mean Temperature 46 °F 49 °F  
Max Temperature 56 °F 61 °F 84 °F (1998)
Min Temperature 36 °F 37 °F 29 °F (2014)
Degree Days  
Heating Degree Days 19 16  
Month to date heating degree days 394 555  
Since 1 July heating degree days 5165 6563  
Cooling Degree Days 0 0  
Month to date cooling degree days 3 0  
Year to date cooling degree days 3 0  
Moisture  
Dew Point 23 °F    
Average Humidity 46    
Maximum Humidity 76    
Minimum Humidity 16    
Precipitation  
Precipitation T in 0.03 in 0.67 in (1967)
Month to date precipitation 0.84 1.20  
Year to date precipitation 1.99 6.24  
Snow  
Snow 0.00 in 0.00 in - ()
Month to date snowfall 1.9  
Since 1 July snowfall 53.6  
Snow Depth -    
Sea Level Pressure  
Sea Level Pressure 29.91 in    
Wind  
Wind Speed 19 mph (NW)    
Max Wind Speed 37 mph    
Max Gust Speed 46 mph    
Visibility 10 miles    
Events      
T = Trace of Precipitation, MM = Missing Value Source: NWS Daily Summary

Daily Weather History Graph

Daily Weather History Graph

Search for Another Location

Airport or City:

Trip Planner

Search our weather history database for the weather conditions in past years. The results will help you decide how hot, cold, wet, or windy it might be!

Date:

Astronomy

Apr. 29, 2013 Rise Set
Actual Time 5:46 AM PDT 8:10 PM PDT
Civil Twilight 5:12 AM PDT 8:44 PM PDT
Nautical Twilight 4:30 AM PDT 9:27 PM PDT
Astronomical Twilight 3:42 AM PDT 10:15 PM PDT
Moon No Moon Rise 9:06 AM PDT (4/29)
Length of Visible Light 15h 31m
Length of Day
14h 23m
Waning Gibbous, 79% of the Moon is Illuminated
Apr 29
Waning Gibbous
May 2
Last Quarter
May 9
New
May 17
First Quarter
May 24
Full

Hourly Weather History & Observations

Time (PDT) Temp. Windchill Dew Point Humidity Pressure Visibility Wind Dir Wind Speed Gust Speed Precip Events Conditions
12:55 AM 48.9 °F - 33.1 °F 54% 29.83 in 10.0 mi NNW 13.8 mph 18.4 mph N/A   Mostly Cloudy
1:55 AM 46.9 °F - 34.0 °F 61% 29.80 in 10.0 mi North 11.5 mph - N/A   Clear
2:55 AM 45.0 °F 39.7 °F 34.0 °F 65% 29.78 in 10.0 mi West 10.4 mph - N/A   Clear
3:55 AM 46.0 °F 41.9 °F 34.0 °F 63% 29.77 in 10.0 mi NW 8.1 mph - N/A   Clear
4:55 AM 44.1 °F 36.8 °F 35.1 °F 71% 29.79 in 10.0 mi NNW 16.1 mph 24.2 mph N/A   Clear
5:55 AM 44.1 °F 36.5 °F 35.1 °F 71% 29.80 in 10.0 mi NW 17.3 mph - N/A   Clear
6:55 AM 44.1 °F 36.8 °F 37.0 °F 76% 29.84 in 10.0 mi NW 16.1 mph - 0.00 in   Mostly Cloudy
7:55 AM 46.9 °F - 28.0 °F 48% 29.87 in 10.0 mi NW 26.5 mph 33.4 mph N/A   Overcast
8:55 AM 48.9 °F - 28.9 °F 46% 29.89 in 10.0 mi WNW 18.4 mph - N/A   Partly Cloudy
9:55 AM 51.1 °F - 30.0 °F 44% 29.90 in 10.0 mi West 21.9 mph - N/A   Scattered Clouds
10:55 AM 52.0 °F - 19.0 °F 27% 29.92 in 10.0 mi WNW 25.3 mph 38.0 mph N/A   Partly Cloudy
11:55 AM 54.0 °F - 15.1 °F 22% 29.92 in 10.0 mi WNW 27.6 mph 38.0 mph N/A   Clear
12:55 PM 53.1 °F - 14.0 °F 21% 29.92 in 10.0 mi NW 28.8 mph 38.0 mph N/A   Clear
1:55 PM 54.0 °F - 10.0 °F 17% 29.93 in 10.0 mi NW 28.8 mph 41.4 mph N/A   Clear
2:55 PM 55.0 °F - 10.9 °F 17% 29.94 in 10.0 mi NW 34.5 mph 41.4 mph N/A   Clear
3:55 PM 54.0 °F - 10.9 °F 18% 29.95 in 10.0 mi NW 31.1 mph 39.1 mph N/A   Clear
4:55 PM 54.0 °F - 10.9 °F 18% 29.95 in 10.0 mi NW 29.9 mph 38.0 mph N/A   Clear
5:55 PM 52.0 °F - 15.1 °F 23% 29.95 in 10.0 mi NW 28.8 mph 38.0 mph N/A   Clear
6:55 PM 51.1 °F - 16.0 °F 25% 29.95 in 10.0 mi NW 28.8 mph 35.7 mph N/A   Clear
7:55 PM 48.0 °F - 17.1 °F 29% 29.96 in 10.0 mi NW 18.4 mph 25.3 mph N/A   Clear
8:55 PM 45.0 °F 38.2 °F 18.0 °F 34% 29.99 in 10.0 mi NW 15.0 mph 23.0 mph N/A   Clear
9:55 PM 42.1 °F 38.4 °F 19.9 °F 41% 30.01 in 10.0 mi West 5.8 mph - N/A   Clear
10:55 PM 43.0 °F 41.3 °F 18.0 °F 37% 30.03 in 10.0 mi Variable 3.5 mph - N/A   Partly Cloudy
11:55 PM 37.9 °F 33.5 °F 19.9 °F 48% 30.04 in 10.0 mi North 5.8 mph - N/A   Partly Cloudy